• Em Portugal
  • Lista de países
  • Para 7 dias
  • Temperatura da água
  • Mapas de satélite
  • Mapa do tempo
  • Widgets de tempo
  • user-avatar
    Iniciar Sessão

    Previsão horária em Chubakovo

    Hoje, 20 Setembro, Quinta-feira

    Tempo Temperatura Precipitação Vento Pressão Humidade
    00:00 +16°C° 0 mm 3 m/s 746 mmHg 92%
    01:00 +16°C° 0 mm 3 m/s 746 mmHg 93%
    02:00 +16°C° 0 mm 3 m/s 746 mmHg 94%
    03:00 +16°C° 0 mm 3 m/s 746 mmHg 95%
    04:00 +16°C° 0 mm 3 m/s 746 mmHg 95%
    05:00 +16°C° 0 mm 2 m/s 746 mmHg 96%
    06:00 +16°C° 0 mm 3 m/s 746 mmHg 93%
    07:00 +17°C° 0 mm 3 m/s 747 mmHg 90%
    08:00 +18°C° 0 mm 2 m/s 747 mmHg 86%
    09:00 +19°C° 0 mm 3 m/s 747 mmHg 79%
    10:00 +21°C° 0 mm 3 m/s 747 mmHg 71%
    11:00 +22°C° 0 mm 3 m/s 747 mmHg 64%
    12:00 +24°C° 0 mm 3 m/s 747 mmHg 61%
    13:00 +24°C° 0 mm 3 m/s 747 mmHg 58%
    14:00 +25°C° 0 mm 3 m/s 747 mmHg 55%
    15:00 +24°C° 0 mm 3 m/s 747 mmHg 59%
    16:00 +23°C° 0 mm 2 m/s 747 mmHg 64%
    17:00 +22°C° 0 mm 1 m/s 747 mmHg 68%
    18:00 +21°C° 0 mm 1 m/s 747 mmHg 72%
    19:00 +20°C° 0 mm 1 m/s 747 mmHg 75%
    20:00 +18°C° 0 mm 1 m/s 747 mmHg 78%
    21:00 +18°C° 0 mm 1 m/s 747 mmHg 81%
    22:00 +18°C° 0 mm 1 m/s 747 mmHg 83%
    23:00 +18°C° 0 mm 1 m/s 747 mmHg 85%

    Amanhã, 21 Setembro, Sexta-feira

    Tempo Temperatura Precipitação Vento Pressão Humidade
    00:00 +18°C° 0 mm 1 m/s 747 mmHg 87%
    01:00 +16°C° 0 mm 1 m/s 747 mmHg 89%
    02:00 +16°C° 0 mm 1 m/s 747 mmHg 90%
    03:00 +16°C° 0 mm 1 m/s 747 mmHg 91%
    04:00 +16°C° 0 mm 1 m/s 747 mmHg 92%
    05:00 +16°C° 0 mm 1 m/s 747 mmHg 93%
    06:00 +17°C° 0 mm 2 m/s 748 mmHg 90%
    07:00 +18°C° 0 mm 2 m/s 748 mmHg 88%
    08:00 +19°C° 0 mm 2 m/s 748 mmHg 85%
    09:00 +20°C° 0 mm 2 m/s 748 mmHg 79%
    10:00 +22°C° 0 mm 3 m/s 748 mmHg 73%
    11:00 +25°C° 0 mm 3 m/s 748 mmHg 67%
    12:00 +25°C° 0 mm 3 m/s 747 mmHg 64%
    13:00 +26°C° 0 mm 3 m/s 747 mmHg 61%
    14:00 +26°C° 0 mm 3 m/s 747 mmHg 58%
    15:00 +25°C° 0 mm 3 m/s 747 mmHg 62%
    16:00 +25°C° 0 mm 3 m/s 746 mmHg 66%
    17:00 +24°C° 0 mm 2 m/s 746 mmHg 70%
    18:00 +21°C° 0 mm 3 m/s 746 mmHg 72%
    19:00 +20°C° 0 mm 3 m/s 746 mmHg 75%
    20:00 +18°C° 0 mm 3 m/s 746 mmHg 78%
    21:00 +18°C° 0 mm 3 m/s 745 mmHg 78%
    22:00 +18°C° 0 mm 4 m/s 745 mmHg 78%
    23:00 +17°C° 0 mm 4 m/s 745 mmHg 79%

    Depois de amanhã, 22 Setembro, Sábado

    Tempo Temperatura Precipitação Vento Pressão Humidade
    00:00 +17°C° 0 mm 4 m/s 744 mmHg 79%
    01:00 +17°C° 0 mm 4 m/s 744 mmHg 78%
    02:00 +17°C° 0 mm 4 m/s 744 mmHg 78%
    03:00 +15°C° 0 mm 5 m/s 744 mmHg 77%
    04:00 +15°C° 0 mm 5 m/s 743 mmHg 76%
    05:00 +15°C° 0 mm 5 m/s 743 mmHg 75%
    06:00 +16°C° 0 mm 6 m/s 742 mmHg 73%
    07:00 +16°C° 0 mm 6 m/s 742 mmHg 70%
    08:00 +17°C° 0 mm 6 m/s 742 mmHg 68%
    09:00 +19°C° 0 mm 6 m/s 742 mmHg 65%
    10:00 +20°C° 0 mm 6 m/s 742 mmHg 61%
    11:00 +21°C° 0 mm 6 m/s 742 mmHg 58%
    12:00 +20°C° 0 mm 6 m/s 742 mmHg 62%
    13:00 +19°C° 0 mm 6 m/s 742 mmHg 66%
    14:00 +17°C° 0 mm 5 m/s 742 mmHg 70%
    15:00 +15°C° 0.3 mm 5 m/s 742 mmHg 74%
    16:00 +13°C° 0.3 mm 5 m/s 743 mmHg 78%
    17:00 +12°C° 0.3 mm 4 m/s 743 mmHg 82%
    18:00 +11°C° 0.9 mm 4 m/s 743 mmHg 84%
    19:00 +11°C° 0.9 mm 3 m/s 743 mmHg 86%
    20:00 +10°C° 0.9 mm 3 m/s 744 mmHg 88%
    21:00 +10°C° 0.6 mm 3 m/s 744 mmHg 89%
    22:00 +10°C° 0.6 mm 3 m/s 744 mmHg 90%
    23:00 +10°C° 0.6 mm 3 m/s 744 mmHg 91%

    23 Setembro, Domingo

    Tempo Temperatura Precipitação Vento Pressão Humidade
    00:00 +10°C° 0.3 mm 3 m/s 744 mmHg 91%
    01:00 +9°C° 0.3 mm 3 m/s 743 mmHg 91%
    02:00 +9°C° 0.3 mm 3 m/s 743 mmHg 92%
    03:00 +9°C° 0 mm 3 m/s 743 mmHg 92%
    04:00 +8°C° 0 mm 3 m/s 743 mmHg 93%
    05:00 +8°C° 0 mm 3 m/s 743 mmHg 93%
    06:00 +8°C° 0 mm 3 m/s 742 mmHg 90%
    07:00 +9°C° 0 mm 3 m/s 742 mmHg 87%
    08:00 +8°C° 0 mm 4 m/s 742 mmHg 85%
    09:00 +11°C° 0 mm 4 m/s 742 mmHg 79%
    10:00 +12°C° 0 mm 5 m/s 742 mmHg 73%
    11:00 +13°C° 0 mm 6 m/s 742 mmHg 67%
    12:00 +14°C° 0.2 mm 6 m/s 742 mmHg 65%
    13:00 +14°C° 0.2 mm 6 m/s 741 mmHg 63%
    14:00 +14°C° 0.2 mm 6 m/s 741 mmHg 62%
    15:00 +14°C° 0.1 mm 5 m/s 741 mmHg 65%
    16:00 +13°C° 0.1 mm 4 m/s 741 mmHg 69%
    17:00 +12°C° 0.1 mm 3 m/s 741 mmHg 73%
    18:00 +11°C° 0 mm 3 m/s 741 mmHg 76%
    19:00 +10°C° 0 mm 3 m/s 741 mmHg 78%
    20:00 +9°C° 0 mm 3 m/s 742 mmHg 81%
    21:00 +9°C° 0 mm 3 m/s 741 mmHg 80%
    22:00 +9°C° 0 mm 3 m/s 741 mmHg 79%
    23:00 +8°C° 0 mm 3 m/s 741 mmHg 77%

    24 Setembro, Segunda-feira

    Tempo Temperatura Precipitação Vento Pressão Humidade
    00:00 +9°C° 0 mm 3 m/s 740 mmHg 77%
    01:00 +9°C° 0 mm 3 m/s 740 mmHg 76%
    02:00 +8°C° 0 mm 4 m/s 739 mmHg 76%
    03:00 +8°C° 0.3 mm 4 m/s 738 mmHg 79%
    04:00 +8°C° 0.3 mm 5 m/s 737 mmHg 81%
    05:00 +8°C° 0.3 mm 6 m/s 736 mmHg 84%
    06:00 +8°C° 1.8 mm 7 m/s 735 mmHg 86%
    07:00 +7°C° 1.8 mm 8 m/s 734 mmHg 88%
    08:00 +7°C° 1.8 mm 9 m/s 733 mmHg 90%
    09:00 +9°C° 2.2 mm 8 m/s 731 mmHg 91%
    10:00 +9°C° 2.2 mm 8 m/s 730 mmHg 91%
    11:00 +9°C° 2.2 mm 8 m/s 729 mmHg 92%
    12:00 +10°C° 1.3 mm 8 m/s 728 mmHg 92%
    13:00 +11°C° 1.3 mm 9 m/s 727 mmHg 92%
    14:00 +11°C° 1.3 mm 9 m/s 725 mmHg 92%
    15:00 +11°C° 0.6 mm 9 m/s 725 mmHg 89%
    16:00 +11°C° 0.6 mm 10 m/s 725 mmHg 85%
    17:00 +9°C° 0.6 mm 10 m/s 725 mmHg 82%
    18:00 +8°C° 0.1 mm 10 m/s 726 mmHg 82%
    19:00 +7°C° 0.1 mm 10 m/s 727 mmHg 83%
    20:00 +6°C° 0.1 mm 11 m/s 728 mmHg 83%
    21:00 +6°C° 0.3 mm 10 m/s 729 mmHg 83%
    22:00 +6°C° 0.3 mm 10 m/s 731 mmHg 83%
    23:00 +5°C° 0.3 mm 10 m/s 732 mmHg 83%

    25 Setembro, Terça-feira

    Tempo Temperatura Precipitação Vento Pressão Humidade
    00:00 +5°C° 0.1 mm 10 m/s 733 mmHg 82%
    01:00 +5°C° 0.1 mm 9 m/s 735 mmHg 81%
    02:00 +3°C° 0.1 mm 9 m/s 736 mmHg 80%
    03:00 +3°C° 0 mm 9 m/s 737 mmHg 80%
    04:00 +2°C° 0 mm 8 m/s 738 mmHg 80%
    05:00 +2°C° 0 mm 8 m/s 739 mmHg 80%
    06:00 +2°C° 0 mm 8 m/s 739 mmHg 78%
    07:00 +2°C° 0 mm 8 m/s 740 mmHg 75%
    08:00 +3°C° 0 mm 9 m/s 741 mmHg 73%
    09:00 +5°C° 0 mm 9 m/s 741 mmHg 67%
    10:00 +6°C° 0 mm 8 m/s 742 mmHg 61%
    11:00 +6°C° 0 mm 8 m/s 743 mmHg 55%
    12:00 +7°C° 0 mm 8 m/s 743 mmHg 54%
    13:00 +9°C° 0 mm 8 m/s 744 mmHg 52%
    14:00 +9°C° 0 mm 7 m/s 744 mmHg 50%
    15:00 +9°C° 0 mm 6 m/s 744 mmHg 56%
    16:00 +8°C° 0 mm 5 m/s 744 mmHg 61%
    17:00 +8°C° 0 mm 3 m/s 745 mmHg 66%
    18:00 +7°C° 0 mm 3 m/s 745 mmHg 69%
    19:00 +5°C° 0 mm 3 m/s 746 mmHg 72%
    20:00 +4°C° 0 mm 3 m/s 746 mmHg 74%
    21:00 +4°C° 0 mm 3 m/s 746 mmHg 76%
    22:00 +4°C° 0 mm 3 m/s 746 mmHg 78%
    23:00 +3°C° 0 mm 3 m/s 747 mmHg 80%
    Mostrar mais